CZ-3B DEB, 40845

Orbit data source: Space-Track

CZ-3B DEB, 40845 is space debris in HEO originally from a launch on Mon, 19 Dec 2011 UTC launched from the Xichang Space Center, China (XSC). Debris objects in space refer to the collection of defunct objects orbiting the Earth. Examples of debris include non-operational satellites, rocket bodies, and fragments generated from explosions, collisions, or faulty payload assembly.

Loading next visibility...
Identifier
40845, 2011-077AA
Orbit
HEO
Country
Flag of CNCN / PRC
Related business
Manufacturer
CALT
Mission
Spacecraft
Bus & Motor
Unknown
Mass
Unknown
Launch date (UTC)
2011-12-19 (14 years ago)
Launch vehicle
Unknown
Launch site
Xichang Space Center, China (XSC)
Object type
Payload
Rocket body
Debris
Shape & HBR
Unknown
Radar Cross Section
Medium (>0.1 m² and <1 m²)

Expand to show TLE details & history
Last TLE update: 1 day ago

TLE from 1 day ago
0 CZ-3B DEB
1 40845U 11077AA  25257.79187374  .00003528  00000-0  60140-2 0  9995
2 40845  21.7269 231.8168 7451254  24.3321 357.5202  2.02422099 86640
Epoch: 2025-09-14T19:00Z
TLE epoch observation values (Epoch: 2025-09-14T19:00:17.891Z)
Latitude
0.00038°
Longitude
-47.31724°
Altitude
636.39 km
Speed
9.927 km/s
True Right ascension
15h 27m 03s
True Declination
0° 00' 01"
Sunlit
Object was in daylight at epoch
Visualization orbit readout
Latitude
Unknown
Longitude
Unknown
Altitude
Unknown
Speed
Unknown
Apparent Right ascension
Unknown
Apparent Declination
Unknown
Sunlit
N/A
Visualization observer readout
Local Sidereal Time
23:01:54
Azimuth
Unknown
Elevation
Unknown
Doppler factor
Unknown
Orbital elements
Apogee altitude
39,696.683 km
Perigee altitude
351.065 km
Semi-major axis
26,402.011 km
Eccentricity
0.74513
Inclination
21.7269°
RAAN
231.8168°
Arg. of periapsis
24.3321°
True anomaly
335.21881°
Mean anomaly
357.5202°
Eccentric anomaly
350.40158°
Mean motion
0.50593 °/min
Orbital period
711.57 mins
BSTAR
0.006014
Loading maneuver chart data...
Computing Atmospheric mass density...
Loading historical data...
Loading historical data...
Loading historical data...
Loading historical data...
Loading historical data...
Loading historical data...
Loading historical data...

Documentation

Showing up to 5 results
|